Notices

What's New in latest Release from April 7th, 2021:

- Updated Glossary, including Speed of Maximum Gust, and Total Hourly Precipitation

- Updated national and regional climate services offices contacts and prices information

- Addition of station inventory lists for 1981-2010, 1971-2000, and 1961-1990 Normals.

If you haven't already, please take our survey and provide feedback about our website: https://eccc.sondage-survey.ca/f/LanguageSelection.aspx?s=442ca660-fcf1-47c0-95a9-59707d6fd709

Hourly Data Report for April 16, 2021

NANAIMO A
BRITISH COLUMBIA
Current Station Operator: NAVCAN

49°03'16.000" N
123°52'12.000" W
28.00 m
1025365
YCD

Download Data

Hourly Data (April 2021)
Hourly Data Report for April 16, 2021
TIME
LST
Temp Definition
°C
Dew Point Definition
°C
Rel Hum Definition
%
Precip. Amount Definition
mm

Wind Dir Definition
10's deg

Wind Spd Definition
km/h
Visibility Definition
km
Stn Press Definition
kPa
Hmdx Definition


Wind Chill Definition


Weather Definition


00:00 10.0 1.3 55 LegendMM 29 4 LegendMM 101.84     LegendNANA
01:00 7.0 1.1 66 LegendMM 18 5 LegendMM 101.88     LegendNANA
02:00 9.9 0.4 51 LegendMM 26 14 LegendMM 101.92     LegendNANA
03:00 8.1 0.3 58 LegendMM 27 8 LegendMM 101.95     LegendNANA
04:00 6.8 0.4 63 LegendMM 25 7 LegendMM 101.98     LegendNANA
05:00 6.4 0.0 63 LegendMM 22 5 LegendMM 102.03     LegendNANA
06:00 5.7 0.6 70 LegendMM 22 2 LegendMM 102.07     LegendNANA
07:00 9.7 2.3 60 LegendMM 17 3 LegendMM 102.11     LegendNANA
08:00 14.0 2.6 46 LegendMM 30 3 LegendMM 102.14     LegendNANA
09:00 16.4 2.0 38 LegendMM 5 4 LegendMM 102.15     LegendNANA
10:00 18.2 3.0 36 LegendMM 15 3 LegendMM 102.14     LegendNANA
11:00 19.4 3.1 34 LegendMM 16 14 LegendMM 102.12     LegendNANA
12:00 20.4 5.6 38 LegendMM 12 7 LegendMM 102.09     LegendNANA
13:00 21.7 5.0 33 LegendMM 2 10 LegendMM 102.06     LegendNANA
14:00 22.3 5.6 33 LegendMM 4 4 LegendMM 102.01     LegendNANA
15:00 22.8 5.2 31 LegendMM 6 6 LegendMM 101.96     LegendNANA
16:00 23.4 4.2 28 LegendMM 4 5 LegendMM 101.91     LegendNANA
17:00 23.1 4.9 30 LegendMM 36 8 LegendMM 101.88     LegendNANA
18:00 20.6 6.2 39 LegendMM 1 9 LegendMM 101.84     LegendNANA
19:00 18.2 4.2 39 LegendMM 27 5 LegendMM 101.83     LegendNANA
20:00 15.8 4.3 46 LegendMM 26 8 LegendMM 101.86     LegendNANA
21:00 11.8 5.6 66 LegendMM 32 2 LegendMM 101.88     LegendNANA
22:00 12.0 2.3 51 LegendMM 20 1 LegendMM 101.89     LegendNANA
23:00 10.2 3.9 65 LegendMM 0 1 LegendMM 101.93     LegendNANA

Notes on Data Quality.

Legend

  • E = Estimated
  • M = Missing
  • NA = Not Available*
  • [empty] = Indicates an unobserved value
Date modified: